Weather History for Watertown, NY

Change the Weather History Date:

Tuesday, April 23, 2013

  Actual Average Record
Temperature  
Mean Temperature 46 °F 47 °F  
Max Temperature 63 °F 58 °F 84 °F (2001)
Min Temperature 29 °F 36 °F 24 °F (1989)
Degree Days  
Heating Degree Days 19 18  
Month to date heating degree days 534 519  
Since 1 July heating degree days 6392 7026  
Cooling Degree Days 0 0  
Month to date cooling degree days 0 0  
Year to date cooling degree days 0 0  
Moisture  
Dew Point 28 °F    
Average Humidity 49    
Maximum Humidity 78    
Minimum Humidity 20    
Precipitation  
Precipitation 0.00 in 0.09 in 0.74 in (1996)
Month to date precipitation 3.17 2.22  
Year to date precipitation 8.46 9.40  
Sea Level Pressure  
Sea Level Pressure 30.24 in    
Wind  
Wind Speed 5 mph (SE)    
Max Wind Speed 14 mph    
Max Gust Speed 23 mph    
Visibility 10 miles    
Events      
T = Trace of Precipitation, MM = Missing Value Source: NWS Daily Summary

Daily Weather History Graph

Daily Weather History Graph

Search for Another Location

Airport:

Trip Planner

Search our weather history database for the weather conditions in past years. The results will help you decide how hot, cold, wet, or windy it might be!

Date:

Astronomy

Apr. 23, 2013 Rise Set
Actual Time 6:07 AM EDT 7:58 PM EDT
Civil Twilight 5:36 AM EDT 8:28 PM EDT
Nautical Twilight 4:59 AM EDT 9:06 PM EDT
Astronomical Twilight 4:18 AM EDT 9:47 PM EDT
Moon 5:46 PM EDT (4/23) 4:39 AM EDT (4/23)
Length of Visible Light 14h 52m
Length of Day
13h 50m
Waxing Gibbous, 94% of the Moon is Illuminated
Apr 23
Waxing Gibbous
Apr 25
Full
May 2
Last Quarter
May 9
New
May 18
First Quarter

Hourly Weather History & Observations

Time (EDT) Temp. Windchill Dew Point Humidity Pressure Visibility Wind Dir Wind Speed Gust Speed Precip Events Conditions
12:56 AM 45.0 °F 41.8 °F 24.1 °F 44% 30.40 in 10.0 mi ESE 5.8 mph - N/A   Clear
1:56 AM 44.1 °F 42.5 °F 25.0 °F 47% 30.40 in 10.0 mi SE 3.5 mph - N/A   Clear
2:56 AM 37.9 °F - 25.0 °F 60% 30.40 in 10.0 mi Calm Calm - N/A   Clear
3:56 AM 32.0 °F - 25.0 °F 75% 30.40 in 10.0 mi Calm Calm - N/A   Clear
4:56 AM 32.0 °F 28.7 °F 26.1 °F 79% 30.40 in 10.0 mi East 3.5 mph - N/A   Clear
5:56 AM 30.9 °F - 25.0 °F 79% 30.40 in 10.0 mi Calm Calm - N/A   Clear
6:56 AM 32.0 °F 28.7 °F 27.0 °F 82% 30.39 in 10.0 mi East 3.5 mph - N/A   Clear
7:56 AM 43.0 °F - 32.0 °F 65% 30.38 in 10.0 mi Calm Calm - N/A   Clear
8:56 AM 46.9 °F - 32.0 °F 56% 30.37 in 10.0 mi SSW 6.9 mph - N/A   Clear
9:45 AM 48.2 °F - 30.2 °F 50% 30.34 in 10.0 mi Variable 4.6 mph - N/A   Partly Cloudy
9:56 AM 48.9 °F - 30.9 °F 50% 30.33 in 10.0 mi Variable 3.5 mph - N/A   Partly Cloudy
10:56 AM 53.1 °F - 30.0 °F 41% 30.29 in 10.0 mi East 5.8 mph - N/A   Clear
11:56 AM 55.9 °F - 24.1 °F 29% 30.27 in 10.0 mi Variable 5.8 mph - N/A   Clear
12:56 PM 57.9 °F - 21.0 °F 24% 30.23 in 10.0 mi SE 9.2 mph 17.3 mph N/A   Clear
1:56 PM 60.1 °F - 21.0 °F 22% 30.21 in 10.0 mi SW 5.8 mph - N/A   Clear
2:56 PM 61.0 °F - 19.0 °F 20% 30.19 in 10.0 mi SE 6.9 mph - N/A   Clear
3:56 PM 61.0 °F - 23.0 °F 23% 30.14 in 10.0 mi Calm Calm - N/A   Clear
4:56 PM 62.1 °F - 27.0 °F 26% 30.11 in 10.0 mi South 10.4 mph 16.1 mph N/A   Clear
5:56 PM 62.1 °F - 28.0 °F 28% 30.12 in 10.0 mi South 5.8 mph - N/A   Clear
6:56 PM 61.0 °F - 28.9 °F 30% 30.08 in 10.0 mi SE 8.1 mph - N/A   Clear
7:56 PM 57.0 °F - 30.0 °F 36% 30.08 in 10.0 mi SSE 4.6 mph - N/A   Clear
8:56 PM 53.1 °F - 35.1 °F 50% 30.06 in 10.0 mi SE 4.6 mph - N/A   Clear
9:56 PM 52.0 °F - 37.9 °F 59% 30.05 in 10.0 mi SE 3.5 mph - N/A   Clear
10:56 PM 52.0 °F - 39.9 °F 63% 30.03 in 10.0 mi SSE 6.9 mph - N/A   Clear
11:56 PM 52.0 °F - 39.9 °F 63% 30.00 in 10.0 mi SSE 11.5 mph 18.4 mph N/A   Clear